Weather History for Santa Barbara, CA

Change the Weather History Date:

Monday, November 4, 2013

  Actual Average Record
Temperature  
Mean Temperature 60 °F 59 °F  
Max Temperature 69 °F 70 °F 93 °F (1976)
Min Temperature 50 °F 47 °F 35 °F (1943)
Degree Days  
Heating Degree Days 5 6  
Month to date heating degree days 20 24  
Since 1 July heating degree days 202 241  
Cooling Degree Days 0 0  
Month to date cooling degree days 0 0  
Year to date cooling degree days 285 186  
Growing Degree Days 9 (Base 50)    
Moisture  
Dew Point 45 °F    
Average Humidity 54    
Maximum Humidity 89    
Minimum Humidity 18    
Precipitation  
Precipitation 0.00 in 0.04 in 0.82 in (1960)
Month to date precipitation 0.00 0.19  
Year to date precipitation 3.81 13.46  
Since 1 July precipitation 0.46 1.41  
Sea Level Pressure  
Sea Level Pressure 29.85 in    
Wind  
Wind Speed 4 mph (SSW)    
Max Wind Speed 17 mph    
Max Gust Speed 23 mph    
Visibility 9 miles    
Events      
T = Trace of Precipitation, MM = Missing Value Source: NWS Daily Summary

Daily Weather History Graph

Daily Weather History Graph

Search for Another Location

Airport:

Trip Planner

Search our weather history database for the weather conditions in past years. The results will help you decide how hot, cold, wet, or windy it might be!

Date:

Astronomy

Nov. 04, 2013 Rise Set
Actual Time 6:22 AM PST 5:02 PM PST
Civil Twilight 5:56 AM PST 5:28 PM PST
Nautical Twilight 5:26 AM PST 5:58 PM PST
Astronomical Twilight 4:57 AM PST 6:28 PM PST
Moon 7:35 AM PST (11/4) 6:15 PM PST (11/4)
Length of Visible Light 11h 32m
Length of Day
10h 40m
New Moon, 2% of the Moon is Illuminated
Nov 4
New Moon
Nov 9
First Quarter
Nov 17
Full
Nov 25
Last Quarter
Dec 2
New

Hourly Weather History & Observations

Time (PST) Temp. Dew Point Humidity Pressure Visibility Wind Dir Wind Speed Gust Speed Precip Events Conditions
12:53 AM 50.0 °F 46.9 °F 89% 29.82 in 8.0 mi NW 3.5 mph - N/A   Partly Cloudy
1:53 AM 50.0 °F 46.9 °F 89% 29.82 in 8.0 mi Calm Calm - N/A   Mostly Cloudy
2:53 AM 52.0 °F 48.0 °F 86% 29.80 in 8.0 mi Calm Calm - N/A   Clear
3:53 AM 52.0 °F 48.0 °F 86% 29.79 in 8.0 mi Calm Calm - N/A   Clear
4:35 AM 51.8 °F 48.2 °F 88% 29.81 in 6.0 mi Calm Calm - N/A   Overcast
4:53 AM 52.0 °F 48.0 °F 86% 29.81 in 7.0 mi Calm Calm - N/A   Overcast
5:53 AM 51.1 °F 48.0 °F 89% 29.81 in 8.0 mi West 3.5 mph - N/A   Mostly Cloudy
6:06 AM 53.6 °F 48.2 °F 82% 29.81 in 8.0 mi Calm Calm - N/A   Partly Cloudy
6:53 AM 50.0 °F 46.9 °F 89% 29.82 in 5.0 mi Calm Calm - N/A   Clear
7:53 AM 57.9 °F 48.9 °F 72% 29.84 in 8.0 mi Calm Calm - N/A   Clear
8:53 AM 64.0 °F 45.0 °F 50% 29.86 in 10.0 mi Calm Calm - N/A   Clear
9:53 AM 64.9 °F 51.1 °F 61% 29.86 in 10.0 mi SW 8.1 mph - N/A   Partly Cloudy
10:53 AM 66.0 °F 53.1 °F 63% 29.85 in 10.0 mi SW 8.1 mph - N/A   Partly Cloudy
11:53 AM 66.0 °F 52.0 °F 60% 29.85 in 10.0 mi SSW 8.1 mph - N/A   Scattered Clouds
12:53 PM 66.9 °F 51.1 °F 57% 29.83 in 10.0 mi SSE 6.9 mph - N/A   Clear
1:53 PM 68.0 °F 46.0 °F 45% 29.81 in 10.0 mi South 6.9 mph - N/A   Clear
2:53 PM 68.0 °F 42.1 °F 39% 29.82 in 10.0 mi SE 6.9 mph - N/A   Clear
3:53 PM 66.0 °F 46.9 °F 50% 29.82 in 10.0 mi SE 6.9 mph - N/A   Clear
4:53 PM 63.0 °F 46.0 °F 54% 29.83 in 10.0 mi East 3.5 mph - N/A   Clear
5:53 PM 59.0 °F 46.0 °F 62% 29.85 in 10.0 mi Calm Calm - N/A   Clear
6:53 PM 55.0 °F 43.0 °F 64% 29.88 in 10.0 mi WNW 3.5 mph - N/A   Clear
7:53 PM 55.0 °F 37.9 °F 53% 29.89 in 10.0 mi Calm Calm - N/A   Clear
8:53 PM 66.0 °F 21.0 °F 18% 29.90 in 10.0 mi NNE 16.1 mph 23.0 mph N/A   Clear
9:53 PM 61.0 °F 26.1 °F 26% 29.91 in 10.0 mi NNE 8.1 mph - N/A   Clear
10:53 PM 55.0 °F 39.9 °F 57% 29.93 in 10.0 mi Calm Calm - N/A   Clear
11:53 PM 52.0 °F 41.0 °F 66% 29.96 in 10.0 mi Calm Calm - N/A   Clear